Showing default

ORBASTRO-TR5, 63236

Orbit data source: Space-Track

ORBASTRO-TR5, 63236 is a UK payload satellite in SSO that was launched on Sat, 15 Mar 2025 UTC via an FALCON 9 launch vehicle from the Air Force Western Test Range (AFWTR). Payload-class satellites include a variety of spacecraft equipped with specific instruments for various scientific and technological missions. These include communications satellites like Starlink; space stations such as the ISS; scientific satellites like the Hubble; Earth observation satellites from companies like Planet Labs, Umbra, and HawkEye 360; GPS; miniature CubeSats for education and research; and military/defense satellites.

Loading next visibility...
Identifier
63236, 2025-052AC
Orbit
SSO
Country
Flag of UKUK
Related business
Manufacturer
OrbAstro
Mission
Operational Commercial Technology
Bus & Motor
CUBESAT 6U, Unknown motor
Mass
~10 kg wet, ~10 kg dry
Launch date (UTC)
2025-03-15 (1 year ago)
Launch vehicle
FALCON 9
Launch site
Air Force Western Test Range (AFWTR)
Object type
Payload
Rocket body
Debris
Shape & HBR
Box, 0.2 m
Radar Cross Section
0.035 m², Medium (>0.1 m² and < 1m²)

Expand to show TLE details & history
Last TLE update: 17 hours ago

TLE from 17 hours ago
0 ORBASTRO-TR5
1 63236U 25052AC  26206.49000016  .00004641  00000-0  20410-3 0  9995
2 63236  97.3791  97.4603 0004925  43.0776 317.0845 15.22360940 75646
Epoch: 2026-07-25T11:45Z
TLE epoch observation values (Epoch: 2026-07-25T11:45:36.013Z)
Latitude
-0.00006°
Longitude
-22.14128°
Altitude
499.336 km
Speed
7.616 km/s
True Right ascension
06h 29m 50s
True Declination
0° 00' 00"
Sunlit
Object was in daylight at epoch
Visualization orbit readout
Latitude
Unknown
Longitude
Unknown
Altitude
Unknown
Speed
Unknown
Apparent Right ascension
Unknown
Apparent Declination
Unknown
Sunlit
N/A
Visualization observer readout
Local Sidereal Time
18:17:01
Azimuth
Unknown
Elevation
Unknown
Doppler factor
Unknown
Orbital elements
Apogee altitude
499.068 km
Perigee altitude
492.298 km
Semi-major axis
6,873.82 km
Eccentricity
0.00049
Inclination
97.3791°
RAAN
97.4603°
Arg. of periapsis
43.0776°
True anomaly
317.04605°
Mean anomaly
317.0845°
Eccentric anomaly
317.06528°
Mean motion
3.80843 °/min
Orbital period
94.53 mins
BSTAR
0.0002041
Loading maneuver chart data...
Computing Atmospheric mass density...
Loading historical data...
Loading historical data...
Loading historical data...
Loading historical data...
Loading historical data...
Loading historical data...
Loading historical data...

Documentation

Showing up to 5 results
|